"Pseudo-MPEC" for P11dgvu

Created 2021 Feb 28 14:07:06 UT using Find_Orb

Click here for an explanation of pseudo-MPECs

 
 Astrometry: 
     P11dgvu  C2021 02 12Lv=Z/!Z%Z+mE=7`YEGS;Sh1#3e)gaGJ!(P'5ObQlS-R2-T?aIL)[F51
     P11dgvu  C2021 02 12O2]a2_14A;oAstrometry]redacted;QDy\6,DCQQ7ldv5ml5PP8F51
     P11dgvu  C2021 02 12i0WvGbtGyeSC.LN_c@9MOAc!9I9(etlvJ9_clickD`here^/n[=@F51
     P11dgvu  C2021 02 12/V])p1Fy,/q-@^for+tP(DCAC*YRRnJexplanationL#/,P@,)o!F51

Station data:
(F51) Pan-STARRS 1, Haleakala  (N20.707235 W156.255910)  US/Hawaii.
   Observers N. Primak, A. Schultz, S. Watters, J. Thiel, T. Goggia. Measurer
   PS1 Science Consortium. 1.8-m Ritchey-Chrétien + CCD.

Orbital elements:  P11dgvu
   Perihelion 2020 Jan 9.610063 +/- 236.079 TT = 14:38:29 (JD 2458858.110063)
Epoch 2021 Feb 13.0 TT = JDT 2459258.5   Earth MOID: 0.7444   AutoNEOCP
M 163.00239697 +/- 134.00956        (J2000 ecliptic)
n   0.40710912 +/- 0.24916          Peri.  235.59390 +/- 82.325725
a   1.80299902 +/- 0.735638         Node   103.42381 +/- 41.805388
e   0.0364592 +/- 0.275183          Incl.   23.11719 +/- 28.239807
P   2.42/884.27d           H 20.4   G  0.15   U 11.8  SR
q 1.73726301 +/- 0.827894    Q 1.86873502 +/- 36.7007
From 4 observations 2021 Feb. 12 (41.9 min); mean residual 0".04
Residuals in arcseconds: 
210212 F51  .02-  .06+    210212 F51  .01-  .03-    
210212 F51  .03+  .07-    210212 F51  .00   .04+    

Ephemerides (geocentric):
Date (UTC) HH   RA              Dec         delta   r     elong  mag " sig PA
---- -- -- --  -------------   -----------  ------ ------ -----  --- ---- ---
2021 02 28 14  09 44 17.426   +47 08 10.20  1.0061 1.8677 138.6 22.8  28d 143
2021 02 28 15  09 44 14.454   +47 08 30.24  1.0063 1.8677 138.5 22.8  28d 143
2021 02 28 16  09 44 11.484   +47 08 50.22  1.0065 1.8677 138.5 22.8  28d 143
2021 02 28 17  09 44 08.518   +47 09 10.12  1.0067 1.8677 138.5 22.8  28d 143
2021 02 28 18  09 44 05.555   +47 09 29.96  1.0069 1.8677 138.4 22.8  28d 143
2021 02 28 19  09 44 02.595   +47 09 49.73  1.0071 1.8677 138.4 22.8  28d 143
2021 02 28 20  09 43 59.637   +47 10 09.44  1.0074 1.8677 138.4 22.8  28d 143
2021 02 28 21  09 43 56.683   +47 10 29.07  1.0076 1.8677 138.3 22.8  28d 143
2021 02 28 22  09 43 53.732   +47 10 48.64  1.0078 1.8677 138.3 22.8  28d 143
2021 02 28 23  09 43 50.784   +47 11 08.13  1.0080 1.8677 138.3 22.8  28d 143
2021 03 01 00  09 43 47.839   +47 11 27.56  1.0083 1.8677 138.2 22.8  28d 143
2021 03 01 01  09 43 44.897   +47 11 46.92  1.0085 1.8677 138.2 22.8  28d 143
2021 03 01 02  09 43 41.958   +47 12 06.21  1.0087 1.8677 138.2 22.8  28d 143
2021 03 01 03  09 43 39.023   +47 12 25.44  1.0089 1.8677 138.1 22.8  28d 143
2021 03 01 04  09 43 36.090   +47 12 44.59  1.0091 1.8677 138.1 22.8  28d 143
2021 03 01 05  09 43 33.160   +47 13 03.68  1.0094 1.8677 138.1 22.8  28d 143
2021 03 01 06  09 43 30.234   +47 13 22.70  1.0096 1.8677 138.0 22.8  28d 143
2021 03 01 07  09 43 27.311   +47 13 41.65  1.0098 1.8677 138.0 22.8  28d 143
2021 03 01 08  09 43 24.391   +47 14 00.54  1.0100 1.8677 138.0 22.9  28d 143
2021 03 01 09  09 43 21.474   +47 14 19.35  1.0103 1.8677 137.9 22.9  28d 143
2021 03 01 10  09 43 18.560   +47 14 38.10  1.0105 1.8677 137.9 22.9  28d 143
2021 03 01 11  09 43 15.650   +47 14 56.78  1.0107 1.8677 137.9 22.9  28d 143
2021 03 01 12  09 43 12.742   +47 15 15.39  1.0109 1.8678 137.8 22.9  28d 143
2021 03 01 13  09 43 09.838   +47 15 33.93  1.0112 1.8678 137.8 22.9  28d 143
2021 03 01 14  09 43 06.937   +47 15 52.41  1.0114 1.8678 137.8 22.9  28d 143
2021 03 01 15  09 43 04.039   +47 16 10.82  1.0116 1.8678 137.7 22.9  28d 143
2021 03 01 16  09 43 01.145   +47 16 29.16  1.0118 1.8678 137.7 22.9  28d 143
2021 03 01 17  09 42 58.253   +47 16 47.43  1.0121 1.8678 137.7 22.9  28d 143
2021 03 01 18  09 42 55.365   +47 17 05.63  1.0123 1.8678 137.6 22.9  28d 143
2021 03 01 19  09 42 52.480   +47 17 23.77  1.0125 1.8678 137.6 22.9  28d 143
2021 03 01 20  09 42 49.599   +47 17 41.84  1.0127 1.8678 137.5 22.9  28d 143
2021 03 01 21  09 42 46.720   +47 17 59.84  1.0130 1.8678 137.5 22.9  28d 143
2021 03 01 22  09 42 43.845   +47 18 17.78  1.0132 1.8678 137.5 22.9  28d 143
2021 03 01 23  09 42 40.974   +47 18 35.65  1.0134 1.8678 137.4 22.9  28d 143
2021 03 02 00  09 42 38.105   +47 18 53.44  1.0136 1.8678 137.4 22.9  28d 143
2021 03 02 01  09 42 35.240   +47 19 11.18  1.0139 1.8678 137.4 22.9  28d 143
2021 03 02 02  09 42 32.378   +47 19 28.84  1.0141 1.8678 137.3 22.9  28d 143
2021 03 02 03  09 42 29.520   +47 19 46.44  1.0143 1.8678 137.3 22.9  28d 143
2021 03 02 04  09 42 26.664   +47 20 03.97  1.0146 1.8678 137.3 22.9  28d 143
2021 03 02 05  09 42 23.813   +47 20 21.43  1.0148 1.8678 137.2 22.9  28d 143
2021 03 02 06  09 42 20.964   +47 20 38.83  1.0150 1.8678 137.2 22.9  28d 143
2021 03 02 07  09 42 18.119   +47 20 56.16  1.0152 1.8678 137.2 22.9  28d 143
2021 03 02 08  09 42 15.277   +47 21 13.42  1.0155 1.8678 137.1 22.9  28d 143
2021 03 02 09  09 42 12.439   +47 21 30.61  1.0157 1.8678 137.1 22.9  28d 143
2021 03 02 10  09 42 09.604   +47 21 47.74  1.0159 1.8678 137.1 22.9  28d 143
2021 03 02 11  09 42 06.772   +47 22 04.80  1.0162 1.8678 137.0 22.9  28d 143
2021 03 02 12  09 42 03.944   +47 22 21.79  1.0164 1.8678 137.0 22.9  28d 143
2021 03 02 13  09 42 01.119   +47 22 38.72  1.0166 1.8678 137.0 22.9  28d 143